Home > Weather > Reutlingen > Past weeks

Flag for Germany Past Weather in Reutlingen, Baden-Württemberg, Germany — Yesterday and Last 2 Weeks

Now
64 °F

Clear.


Feels Like: 64 °F
Forecast: 52 / 76 °F
Wind: 1 mph from Northwest

Location: Stuttgart-Echterdingen

Current Time: Aug 30, 2016 at 1:38:40 AM

Latest Report: Aug 30, 2016 at 1:20 AM


Visibility: 10 mi

Pressure: 30.21 "Hg

Humidity: 73%

Dew Point: 55 °F

Location of ReutlingenLocation

Past Weather in Reutlingen — Graph

°F

Reutlingen Temperature Yesterday

Maximum temperature yesterday: 75 °F (at 12:20 PM)
Minimum temperature yesterday: 63 °F (at 11:50 PM)
Average temperature yesterday: 71 °F

High & Low Weather Summary for the Past Weeks

 TemperatureHumidityPressure
High91 °F (Aug 27, 2:50 PM)100% (Aug 19, 1:50 AM)30.42 "Hg (Aug 19, 1:50 AM)
Low54 °F (Aug 22, 1:50 AM)26% (Aug 27, 6:20 PM)29.83 "Hg (Aug 18, 5:20 AM)
Average70 °F66%30.09 "Hg
* Reported Aug 15 12:20 AM — Aug 30 12:20 AM, Reutlingen, Weather by CustomWeather, © 2016

Note: Actual official high and low records may vary slightly from our data, if they occured in-between our weather recording intervals... More about our weather records

Advertising

Reutlingen Weather History for the Previous 24 Hours

Scroll right to see more
 ConditionsComfort  
Time TempWeatherWind HumidityBarometerVisibility
12:20 AM
Tue, Aug 30
64 °FClear.8 mph73%30.21 "Hg10 mi
11:50 PM
Mon, Aug 29
63 °FClear.3 mph68%30.21 "Hg10 mi
11:20 PM64 °FClear.6 mph64%30.18 "Hg10 mi
10:50 PM66 °FClear.6 mph56%30.18 "Hg10 mi
10:20 PM66 °FClear.6 mph56%30.18 "Hg10 mi
9:50 PM66 °FClear.7 mph52%30.18 "Hg10 mi
9:20 PM68 °FClear.8 mph49%30.18 "Hg10 mi
8:50 PM70 °FSunny.7 mph43%30.15 "Hg10 mi
8:20 PM70 °FSunny.8 mph43%30.15 "Hg10 mi
7:50 PM72 °FSunny.13 mph44%30.12 "Hg10 mi
7:20 PM73 °FSunny.15 mph41%30.12 "Hg10 mi
6:50 PM73 °FSunny.13 mph44%30.12 "Hg10 mi
6:20 PM75 °FPassing clouds.12 mph44%30.12 "HgN/A
5:50 PM75 °FPassing clouds.12 mph44%30.09 "HgN/A
5:20 PM75 °FPassing clouds.13 mph47%30.09 "HgN/A
4:50 PM75 °FSunny.10 mph44%30.09 "Hg10 mi
4:20 PM75 °FPassing clouds.9 mph47%30.09 "HgN/A
3:50 PM75 °FPassing clouds.12 mph47%30.09 "HgN/A
3:20 PM75 °FPassing clouds.6 mph50%30.09 "HgN/A
2:50 PM75 °FPassing clouds.7 mph47%30.09 "HgN/A
2:20 PM75 °FPassing clouds.3 mph50%30.12 "HgN/A
1:50 PM75 °FScattered clouds.9 mph50%30.12 "HgN/A
1:20 PM75 °FScattered clouds.12 mph54%30.12 "HgN/A
12:50 PM75 °FScattered clouds.7 mph54%30.12 "HgN/A
12:20 PM75 °FScattered clouds.7 mph54%30.12 "HgN/A
11:50 AM73 °FScattered clouds.6 mph61%30.12 "HgN/A
11:20 AM73 °FBroken clouds.7 mph61%30.12 "HgN/A
10:50 AM73 °FBroken clouds.7 mph61%30.12 "HgN/A
10:20 AM72 °FBroken clouds.7 mph65%30.12 "HgN/A
9:50 AM72 °FBroken clouds.6 mph65%30.12 "HgN/A
9:20 AM72 °FPassing clouds.9 mph65%30.09 "HgN/A
8:50 AM70 °FPassing clouds.6 mph69%30.09 "HgN/A
8:20 AM70 °FPassing clouds.5 mph69%30.09 "HgN/A
7:50 AM68 °FSunny.8 mph73%30.09 "Hg10 mi
7:20 AM66 °FPassing clouds.6 mph78%30.09 "HgN/A
6:50 AM66 °FClear.6 mph78%30.09 "Hg10 mi
6:20 AM68 °FClear.2 mph73%30.09 "Hg10 mi
5:50 AM68 °FClear.5 mph73%30.09 "Hg10 mi
5:20 AM68 °FPassing clouds.3 mph73%30.09 "HgN/A
4:50 AM70 °FPassing clouds.5 mph69%30.09 "HgN/A
4:20 AM70 °FPartly cloudy.5 mph69%30.09 "HgN/A
3:50 AM70 °FScattered showers. Passing clouds.2 mph69%30.09 "HgN/A
3:20 AM70 °FScattered showers. Partly cloudy.3 mph69%30.09 "HgN/A
2:50 AM72 °FPartly cloudy.2 mph65%30.09 "HgN/A
2:20 AM72 °FScattered showers. Partly cloudy.3 mph65%30.07 "HgN/A
1:50 AM72 °FLight rain. Partly cloudy.5 mph69%30.09 "HgN/A
1:20 AM72 °FClear.9 mph69%30.07 "Hg10 mi
Weather by CustomWeather, © 2016

See weather overviewHow to use our weather pages